Regional Weather Roundup
Issued by NWS Northern Indiana

Home | Current Version | Previous Version | Graphics & Text | Print | Product List | Glossary On
Versions: 1 2 3 4 5 6 7 8 9 10 11 12 13 14 15 16 17 18 19 20 21 22 23 24 25 26 27 28 29 30 31 32 33 34 35 36 37 38 39 40 41 42 43 44 45 46 47 48 49 50
000
ASUS43 KIWX 040710
RWRIWX

KIWX WEATHER ROUNDUP
NATIONAL WEATHER SERVICE NORTHERN INDIANA
300 AM EDT MON MAY 04 2015

NOTE: "FAIR" INDICATES FEW OR NO CLOUDS BELOW 12,000 FEET WITH NO
SIGNIFICANT WEATHER AND/OR OBSTRUCTIONS TO VISIBILITY.

* THESE STATIONS ARE NOT UNDER NWS QUALITY CONTROL. THEY ALSO MAY NOT
  REPORT WEATHER SUCH AS PRECIPITATION OR FOG.

INZ001>027-040800-
NORTHERN INDIANA

CITY           SKY/WX    TMP DP  RH WIND       PRES   REMARKS
GARY*          MOCLDY    69  39  33 S10G17    29.93F
VALPARAISO     PTCLDY    64  44  48 S12       29.97F
MICHIGAN CITY* MOCLDY    64  37  36 S10G17    29.96S
LAPORTE*       MOCLDY    66  46  48 S8        29.98S
KNOX*          PTCLDY    64  27  24 S14       29.98S
SOUTH BEND     CLOUDY    68  45  43 S15       29.97F
GOSHEN         MOCLDY    67  46  47 S12G22    29.99F
MONTICELLO*    PTCLDY    64  48  56 S8        30.00F
LOGANSPORT*    PTCLDY    59  45  58 S7        30.03F
ROCHESTER*     CLOUDY    68  46  45 S10       30.02S
WARSAW*        MOCLDY    63  46  55 S3        30.02S
ANGOLA*        PTCLDY    64  54  68 S6        30.02S
FORT WAYNE     CLOUDY    63  49  60 S12       30.04F
HUNTINGTON*    CLOUDY    64  48  56 S5        30.03S
PERU/GRISSOM   MOCLDY    64  49  59 SW10      30.02S
MARION*        MOCLDY    60  47  64 S8        30.05F

$$
INZ028>050-040800-
CENTRAL INDIANA

CITY           SKY/WX    TMP DP  RH WIND       PRES   REMARKS
LAFAYETTE      PTCLDY    62  48  60 SW5       30.02R
MUNCIE*        MOCLDY    64  48  56 S9        30.06S
INDIANAPOLIS   PTCLDY    60  47  61 S6        30.04S

$$
MIZ043>046-050>051-056>058-064>065-071>073-077>080-040800-
SOUTHWEST LOWER MICHIGAN

CITY           SKY/WX    TMP DP  RH WIND       PRES   REMARKS
BATTLE CREEK   LGT RAIN  67  48  50 SW13      30.01R
BENTON HARBOR  CLOUDY    62  52  69 SE7       29.95F
COLDWATER*     CLOUDY    66  44  45 SW8       30.01S
HILLSDALE*     MOCLDY    65  47  52 S6        30.02F
HOLLAND        LGT RAIN  61  55  81 SE13      29.94F
GRAND RAPIDS   LGT RAIN  60  55  83 S10       29.98R
KALAMAZOO      HVY RAIN  62  53  72 SW12      30.02R
STURGIS*       LGT RAIN  64  48  55 S3        30.00F
THREE RIVERS*  CLOUDY    66  48  51 NW6       30.02R

$$
OHZ001>008-015>018-024>025-040800-
NORTHWEST OHIO

CITY           SKY/WX    TMP DP  RH WIND       PRES   REMARKS
WAUSEON*       FAIR      61  48  63 S10       30.03F
DEFIANCE       PTCLDY    63  48  58 S7        30.03F
FINDLAY        PTCLDY    60  46  59 S10       30.05F
TOLEDO EXPRESS MOCLDY    64  46  52 S9        30.03F
TOLEDO METCALF MOCLDY    64  46  52 S10       30.04F
LIMA           CLEAR     60  46  59 S9        30.07F

$$
AND FOR LAKE MICHIGAN COASTAL AND OPEN LAKE BUOY OBSERVATIONS

STATION/POSITION TEMP    WIND        PRES    VSBY  WAVE
                 AIR SEA DIR/SP/G                  HT/PER
                 (F)     (DEG/KT/KT) (MB)    (MI)  (FT/S)
CALUMET HARBOR    69     200/ 11/ 16   N/A
MICHIGAN CITY     67     160/ 15/ 18   N/A
BURNS HARBOR      66     190/ 13/ 17 1014.2S
SAINT JOSEPH      70     160/  5/ 10 1014.2F
4 MI NW BRIDGMAN  60 48  230/ 14/ 16   N/A           3/ 3
MICHIGAN CITY     60 50  190/ 10/ 14   N/A           1

$$
&&



USA.gov is the U.S. government's official web portal to all federal, state and local government web resources and services.